Temperature
4 4 4 4 4 4 4 5 5 5 5 5 5 5 5 5 5 4 4 4 5 4 4 4 4 4 4 4 3 3 3 3 3 3 3 3 3 3 3 3 3 3 3
4 4 4 4 4 4 4 4 4 4 4 4 4 4 4 4 4 4 4 4 4 4 4 4 4 3 3 3 3 3 3 2 2 2 2 2 2 2 2 2 2 2 2
3 3 3 3 3 3 3 3 3 3 3 3 3 3 4 4 3 3 3 3 3 3 3 3 3 3 3 2 2 2 2 2 2 1 1 1 1 1 1 2 2 2 2
3 3 3 3 3 3 3 3 3 3 3 3 3 3 3 3 3 3 3 3 3 3 3 2 2 2 2 2 2 1 1 1 1 1 1 1 1 1 1 1 1 1 1
3 3 2 2 2 2 2 2 2 2 2 2 2 2 2 2 2 2 2 2 2 2 2 2 2 1 1 1 1 1 1 0 0 0 0 -0 -0 -0 -0 -0 -0 -0 0
2 2 2 2 2 2 2 2 2 2 2 1 1 2 2 1 1 1 1 1 1 1 1 1 1 1 1 1 0 0 -0 -0 -0 -0 -0 -1 -1 -1 -1 -1 -1 -1 -1
2 2 2 1 1 1 1 1 1 1 1 1 1 1 1 1 1 1 1 1 1 1 1 1 1 1 0 0 -0 -0 -0 -1 -1 -1 -1 -1 -1 -1 -2 -2 -2 -2 -2
2 1 1 1 1 1 1 1 1 1 1 1 1 1 0 0 0 0 -0 0 0 0 -0 -0 -0 -0 -0 -1 -1 -1 -1 -1 -1 -1 -2 -2 -2 -2 -2 -2 -3 -3 -2
1 1 1 1 1 1 1 1 0 0 0 0 0 0 -0 -0 -0 -0 -1 -1 -1 -1 -1 -1 -1 -1 -1 -2 -2 -1 -1 -2 -2 -2 -2 -2 -2 -3 -3 -3 -3 -3 -3
1 1 1 0 0 0 0 -0 -0 -0 -0 -0 -0 -1 -1 -1 -1 -1 -1 -1 -1 -1 -1 -2 -2 -2 -2 -2 -2 -2 -2 -2 -2 -2 -2 -3 -3 -3 -3 -3 -4 -4 -4
0 0 0 0 -0 -0 -0 -1 -1 -1 -1 -1 -1 -1 -1 -1 -1 -2 -2 -2 -2 -2 -2 -2 -2 -2 -3 -3 -3 -3 -3 -3 -3 -3 -3 -3 -3 -3 -4 -4 -4 -4 -4
-0 -0 -0 -0 -1 -1 -1 -1 -1 -1 -1 -1 -1 -2 -2 -2 -2 -2 -2 -2 -2 -3 -3 -3 -3 -3 -3 -3 -4 -4 -4 -4 -4 -4 -4 -4 -4 -4 -4 -4 -4 -4 -4
-0 -1 -1 -1 -1 -1 -1 -1 -2 -2 -2 -2 -2 -2 -2 -2 -2 -2 -3 -3 -3 -3 -3 -3 -3 -4 -4 -4 -4 -4 -4 -4 -5 -5 -4 -4 -5 -5 -5 -5 -5 -5 -5
-1 -1 -1 -1 -1 -2 -2 -2 -2 -2 -2 -3 -3 -3 -3 -3 -3 -3 -3 -3 -3 -3 -4 -4 -4 -4 -4 -4 -5 -5 -5 -5 -5 -5 -5 -5 -5 -5 -5 -5 -5 -5 -5
-1 -1 -1 -2 -2 -2 -2 -2 -3 -3 -3 -3 -3 -4 -4 -4 -4 -4 -4 -4 -4 -4 -4 -4 -4 -5 -5 -5 -5 -5 -5 -5 -5 -6 -6 -6 -6 -6 -6 -6 -6 -6 -6
-2 -2 -2 -2 -2 -2 -3 -3 -3 -3 -3 -4 -4 -4 -4 -4 -4 -4 -4 -5 -5 -5 -5 -5 -5 -5 -5 -5 -5 -5 -6 -6 -6 -6 -6 -6 -7 -7 -7 -6 -7 -7 -6
-2 -2 -2 -2 -3 -3 -3 -3 -3 -4 -4 -4 -4 -5 -5 -5 -5 -5 -5 -5 -5 -5 -5 -5 -5 -6 -6 -6 -6 -6 -6 -6 -6 -7 -7 -7 -7 -7 -7 -7 -7 -7 -7
-2 -3 -3 -3 -3 -3 -4 -4 -4 -4 -4 -4 -5 -5 -5 -5 -5 -5 -5 -5 -5 -5 -6 -6 -6 -6 -6 -6 -6 -6 -7 -7 -7 -7 -7 -7 -7 -7 -7 -7 -7 -7 -7
-3 -3 -3 -3 -4 -4 -4 -4 -4 -4 -4 -5 -5 -5 -5 -5 -5 -6 -6 -6 -6 -6 -6 -6 -6 -6 -7 -7 -7 -7 -7 -7 -7 -7 -7 -7 -8 -8 -8 -8 -8 -7 -8
-3 -3 -4 -4 -4 -4 -4 -4 -5 -5 -5 -5 -5 -5 -5 -6 -6 -6 -6 -6 -6 -6 -6 -7 -7 -7 -7 -7 -7 -7 -7 -7 -7 -7 -8 -8 -8 -8 -8 -8 -8 -8 -8
-4 -4 -4 -4 -4 -4 -5 -5 -5 -5 -5 -5 -5 -6 -6 -6 -6 -6 -6 -6 -7 -7 -7 -7 -7 -7 -7 -7 -7 -7 -7 -8 -8 -8 -8 -8 -8 -8 -8 -8 -8 -8 -8
-4 -4 -5 -5 -5 -5 -5 -5 -5 -6 -6 -6 -6 -6 -6 -6 -7 -7 -7 -7 -7 -7 -7 -7 -7 -7 -7 -8 -8 -8 -8 -8 -8 -8 -8 -8 -8 -8 -8 -8 -8 -8 -8
-5 -5 -5 -5 -5 -5 -6 -6 -6 -6 -6 -6 -6 -6 -7 -7 -7 -7 -7 -7 -7 -7 -7 -7 -7 -7 -7 -8 -8 -8 -8 -8 -8 -8 -8 -8 -8 -8 -8 -9 -8 -8 -9
-5 -5 -5 -5 -6 -6 -6 -6 -6 -6 -6 -6 -7 -7 -7 -7 -7 -7 -7 -7 -7 -8 -8 -8 -8 -7 -8 -8 -8 -8 -8 -8 -9 -9 -9 -9 -9 -9 -9 -9 -9 -9 -9
-5 -5 -6 -6 -6 -6 -6 -6 -7 -7 -7 -7 -7 -7 -7 -7 -7 -7 -8 -8 -8 -8 -8 -8 -8 -8 -8 -8 -8 -8 -8 -8 -9 -9 -9 -9 -9 -9 -9 -9 -9 -9 -9
-5 -6 -6 -6 -6 -6 -7 -7 -7 -7 -7 -7 -7 -7 -7 -8 -8 -8 -8 -8 -8 -8 -8 -8 -8 -8 -8 -8 -8 -8 -8 -8 -8 -9 -9 -9 -9 -9 -9 -9 -9 -9 -9
Wind_Speed
2 2 2 1 1 2 2 1 1 1 1 1 2 2 1 1 1 1 1 1 2 1 1 2 2 2 2 2 2 2 2 2 4 3 2 2 2 3 5 6 6 7 8
2 2 2 1 2 2 1 1 1 2 1 1 2 2 1 1 1 2 1 1 1 1 1 1 1 1 1 1 1 2 2 2 3 4 3 2 3 3 3 4 5 6 7
2 2 2 2 2 2 1 1 2 2 1 1 2 1 1 1 1 1 1 1 1 1 1 1 2 2 2 2 2 2 2 2 2 3 4 3 2 3 3 4 4 4 6
2 2 2 2 2 2 1 1 1 1 1 1 1 1 1 1 1 1 1 1 1 1 1 2 2 3 3 3 3 3 3 2 2 3 4 3 3 3 2 3 4 3 4
3 3 3 2 2 2 2 1 1 1 1 1 1 0 0 1 1 2 2 1 2 1 1 1 2 2 3 3 3 2 3 3 3 3 4 3 3 3 3 3 4 4 4
3 3 3 3 2 2 2 2 1 1 1 1 0 1 1 1 2 2 1 2 2 2 1 2 2 2 3 4 5 5 4 4 4 4 4 5 5 4 4 4 4 4 4
4 3 3 3 3 3 2 2 2 2 1 1 1 1 2 2 3 3 2 2 2 2 2 2 2 3 3 3 4 6 6 7 7 5 6 6 6 5 5 5 5 6 6
4 3 4 4 3 3 2 2 2 2 2 2 2 2 2 3 3 4 3 1 1 2 3 3 3 3 4 3 3 4 4 5 6 5 5 6 6 5 6 6 6 5 5
4 4 4 4 4 3 3 3 2 2 2 2 2 2 2 3 3 4 2 1 1 2 3 3 3 3 6 6 3 4 5 5 7 8 9 9 9 9 7 3 3 4 6
5 4 4 4 4 4 4 3 2 2 2 2 2 2 3 3 4 4 3 2 2 2 2 3 5 5 7 7 3 3 5 5 5 5 6 6 6 6 7 5 4 5 5
4 4 3 4 4 4 3 2 2 2 2 2 2 2 3 3 4 5 5 3 3 3 3 3 4 7 8 7 6 3 5 5 3 3 4 4 3 3 4 4 5 5 6
3 3 3 3 3 3 3 3 2 3 2 2 2 3 2 3 4 5 6 5 4 3 4 4 5 8 7 7 6 6 7 5 2 3 3 4 4 4 3 4 5 5 6
4 4 4 3 3 3 3 3 3 3 3 2 2 3 3 2 4 6 7 7 7 4 3 6 7 7 6 5 7 7 5 3 3 3 4 4 4 4 4 3 4 4 5
5 4 4 4 3 3 3 3 3 3 3 3 3 3 3 3 3 3 4 4 5 5 3 5 7 6 4 5 5 4 3 3 3 4 4 4 4 3 4 3 3 3 3
4 4 3 3 3 3 3 3 4 4 4 4 4 4 4 4 5 6 4 3 3 3 2 1 2 2 3 3 3 3 3 3 4 4 4 4 4 4 4 3 3 3 4
4 4 3 3 3 3 3 3 4 5 6 7 6 5 5 6 8 8 7 6 6 5 3 2 3 3 4 4 4 4 3 4 4 4 4 4 4 5 5 4 4 4 5
5 4 3 4 4 3 3 3 3 3 4 5 6 7 7 7 8 7 6 5 5 4 3 3 3 3 3 4 4 4 4 4 4 4 5 4 4 4 4 4 4 4 4
4 5 4 4 4 4 4 4 3 3 3 3 4 6 7 7 6 6 6 4 3 3 3 3 3 3 3 4 4 4 4 4 4 4 4 5 4 4 5 5 4 4 5
4 3 3 3 3 3 3 3 3 3 3 3 2 3 5 5 5 5 4 2 3 3 3 3 3 4 4 4 4 4 4 4 4 4 4 5 4 4 5 5 5 6 5
3 5 4 3 3 3 3 3 3 3 3 3 3 3 2 2 2 3 2 2 3 4 4 4 4 4 4 4 4 4 4 4 4 4 4 4 4 4 5 5 5 5 5
3 4 5 3 3 3 3 3 3 3 3 4 4 4 4 3 3 3 3 3 4 4 4 4 4 4 4 4 4 4 5 5 4 4 4 4 4 4 4 5 5 5 4
3 3 3 3 3 3 3 3 3 3 4 4 3 3 5 3 3 3 4 4 4 4 4 4 4 4 4 4 4 5 5 5 5 4 4 4 5 5 4 4 4 4 4
3 3 3 2 2 3 3 3 3 3 4 4 3 3 3 3 3 3 4 4 3 4 4 4 4 4 5 5 5 5 5 5 5 5 5 5 5 5 4 5 5 5 4
3 3 3 2 2 2 3 3 3 3 3 3 3 3 3 3 3 4 4 3 4 4 4 4 5 6 6 6 6 6 7 7 7 6 7 6 6 5 5 5 5 5 4
3 3 3 3 3 3 3 3 3 3 3 3 3 3 3 3 4 4 4 3 4 4 5 5 5 5 6 7 8 8 9 10 10 8 6 5 6 6 5 5 5 4 4
2 2 2 2 2 2 3 3 3 3 3 3 3 3 4 4 4 4 4 4 4 4 5 5 6 7 7 8 9 10 11 11 11 10 7 5 5 5 5 5 5 4 4
Wind_Direction
138 127 116 125 114 101 104 120 139 129 121 146 134 120 110 101 107 128 130 142 148 131 159 187 213 219 211 216 203 196 205 210 248 273 266 277 272 280 297 290 286 277 278
139 123 132 127 112 103 100 100 109 116 117 121 111 115 123 120 119 134 131 117 154 167 197 183 209 215 210 221 210 220 236 236 237 266 281 280 274 269 276 282 296 287 279
138 129 128 132 129 129 121 102 100 106 103 94 103 123 128 131 140 145 151 146 150 178 202 205 216 197 226 239 223 221 235 258 245 257 276 277 277 276 288 295 293 293 293
144 145 154 167 167 160 139 124 121 113 107 114 134 157 156 151 150 151 154 161 175 197 204 221 224 211 218 231 235 228 236 245 246 254 267 271 267 270 272 285 298 294 295
157 167 187 186 169 153 146 145 132 119 121 145 159 198 206 186 186 188 192 197 203 224 257 256 253 261 256 250 252 233 231 236 242 251 264 275 272 272 266 260 282 294 288
173 190 188 174 166 166 166 151 139 139 130 121 184 222 246 251 253 244 207 192 204 218 254 281 281 275 278 286 284 276 262 248 241 244 256 257 263 259 259 268 278 290 288
180 194 191 181 180 184 175 158 166 173 168 189 228 226 239 255 264 264 250 185 188 217 239 260 286 290 292 266 280 286 278 275 266 255 250 254 257 250 252 262 262 269 272
182 191 193 186 190 191 182 186 194 194 194 204 224 234 242 258 269 270 263 190 202 232 241 244 250 265 273 271 262 264 263 268 271 266 252 255 255 249 238 249 257 268 276
191 197 197 190 190 193 197 205 207 197 210 217 222 226 241 264 271 273 259 183 223 246 254 255 260 258 285 297 284 272 276 279 281 276 276 277 279 276 268 257 256 267 280
206 205 200 194 192 198 204 209 213 203 212 216 233 233 239 253 265 267 251 202 227 251 262 266 277 280 286 295 278 260 269 275 280 289 290 294 290 276 268 243 236 254 273
199 192 193 193 195 199 202 204 199 203 199 215 239 249 244 251 266 269 259 221 222 240 255 260 265 284 290 296 298 266 275 293 278 278 282 282 282 270 261 253 242 241 254
180 186 194 194 199 197 187 197 196 191 199 221 237 261 260 265 269 270 271 264 252 233 248 253 261 279 286 294 298 292 298 305 289 286 284 283 280 278 275 274 264 258 256
178 192 200 198 202 198 193 197 197 193 202 221 229 254 271 271 274 276 274 273 269 260 258 270 277 280 284 283 289 295 301 288 277 278 279 280 278 275 279 283 282 278 278
188 196 197 197 205 205 204 204 204 202 209 225 237 249 262 268 265 264 259 268 273 274 273 277 280 282 281 279 285 290 284 273 276 271 278 282 287 286 279 274 276 283 286
191 199 202 204 206 213 216 216 218 220 214 216 226 234 243 258 267 269 259 247 242 249 259 262 260 259 262 264 268 273 272 278 281 276 276 284 287 286 286 282 273 275 270
191 203 206 206 209 211 216 243 245 237 243 243 245 246 254 266 281 282 278 272 270 265 255 253 258 253 255 264 270 274 267 266 269 272 273 273 280 283 287 286 279 271 273
196 204 206 205 207 210 213 220 243 263 260 258 257 261 265 273 278 282 281 279 275 267 256 255 259 262 263 266 267 268 268 266 267 267 270 270 274 278 279 278 277 276 275
200 208 208 208 208 211 215 220 222 230 254 272 273 274 275 278 282 283 280 283 281 275 252 255 260 266 268 270 272 274 273 271 270 272 271 267 266 272 275 275 272 271 275
201 205 205 207 207 210 212 215 220 228 239 256 278 288 286 286 287 289 284 254 244 253 258 261 263 267 270 270 271 271 269 269 269 271 272 270 265 265 269 271 273 277 277
212 212 206 203 203 205 206 211 219 225 234 244 253 260 273 276 270 278 268 254 250 253 255 259 262 264 266 265 266 267 268 268 268 268 270 270 268 265 266 267 268 271 272
204 210 208 208 208 207 208 213 218 222 232 241 249 256 256 237 243 252 253 253 253 256 257 259 260 263 262 261 261 262 264 267 267 268 269 268 266 267 266 265 266 266 268
195 204 201 202 205 209 213 215 218 225 234 243 253 264 271 259 248 251 252 256 259 260 261 262 265 263 260 258 257 261 265 267 268 266 266 271 272 267 264 264 265 266 265
191 196 202 203 205 218 225 222 220 226 236 241 246 251 256 255 255 258 261 265 266 266 266 263 264 267 269 267 262 257 258 261 263 262 264 268 270 267 260 259 258 260 260
182 190 195 201 208 215 223 227 227 232 237 243 246 249 252 253 257 262 265 268 269 272 271 267 266 269 273 277 278 272 269 269 267 260 254 256 263 267 260 257 258 256 252
180 187 194 205 215 222 227 231 235 238 244 251 253 255 257 257 260 264 263 262 264 267 271 272 273 272 273 275 278 279 279 278 275 269 256 250 252 255 255 254 254 256 252
186 193 199 204 213 221 227 233 239 244 247 251 255 256 257 258 261 264 264 262 262 266 271 275 274 276 279 280 279 279 281 281 279 276 269 251 247 251 251 250 247 247 245
Height
1471 1471 1472 1472 1473 1474 1474 1475 1476 1477 1477 1478 1478 1479 1479 1480 1481 1481 1482 1482 1483 1484 1485 1485 1486 1487 1488 1489 1489 1490 1490 1491 1490 1489 1490 1490 1490 1489 1488 1488 1487 1486 1485
1469 1469 1470 1471 1471 1471 1472 1473 1474 1474 1475 1475 1476 1476 1477 1477 1478 1478 1479 1479 1480 1480 1481 1481 1482 1483 1484 1484 1484 1485 1486 1486 1486 1485 1485 1485 1485 1484 1483 1483 1482 1481 1480
1467 1468 1468 1469 1469 1470 1470 1471 1471 1472 1473 1473 1474 1474 1474 1475 1475 1475 1476 1476 1476 1477 1477 1477 1478 1478 1479 1479 1480 1480 1481 1481 1481 1480 1480 1480 1480 1479 1478 1478 1477 1476 1475
1465 1466 1466 1467 1467 1468 1468 1469 1469 1470 1470 1471 1471 1471 1471 1472 1472 1472 1473 1473 1474 1474 1474 1474 1474 1474 1475 1475 1475 1476 1476 1476 1476 1476 1475 1475 1475 1474 1473 1472 1470 1470 1469
1463 1463 1464 1465 1466 1466 1466 1467 1467 1467 1468 1468 1468 1469 1469 1469 1469 1470 1470 1470 1471 1471 1471 1471 1471 1470 1470 1471 1471 1471 1472 1471 1471 1471 1470 1470 1470 1469 1468 1467 1465 1464 1463
1460 1461 1462 1463 1463 1464 1464 1465 1465 1465 1465 1466 1466 1466 1466 1466 1467 1467 1467 1467 1467 1467 1467 1467 1467 1467 1466 1466 1467 1467 1467 1467 1466 1466 1465 1465 1464 1464 1464 1462 1461 1459 1457
1457 1458 1459 1460 1460 1461 1462 1462 1462 1463 1463 1463 1463 1463 1463 1463 1464 1464 1464 1464 1464 1463 1463 1463 1463 1463 1463 1462 1462 1462 1463 1463 1463 1462 1461 1460 1459 1459 1459 1457 1456 1455 1453
1454 1455 1456 1457 1458 1458 1459 1459 1459 1460 1460 1460 1460 1460 1460 1460 1460 1460 1460 1460 1460 1460 1460 1459 1459 1459 1459 1458 1458 1457 1457 1457 1457 1456 1456 1455 1455 1454 1454 1453 1451 1449 1448
1451 1452 1453 1454 1454 1455 1455 1455 1456 1456 1457 1457 1457 1457 1457 1457 1457 1457 1457 1457 1456 1456 1456 1456 1455 1455 1455 1454 1454 1453 1452 1452 1452 1451 1450 1450 1449 1448 1448 1447 1445 1444 1441
1447 1448 1450 1450 1451 1451 1452 1452 1452 1453 1453 1453 1453 1453 1453 1453 1454 1454 1453 1453 1453 1453 1452 1452 1452 1451 1451 1450 1449 1448 1447 1447 1446 1445 1444 1444 1443 1443 1442 1441 1440 1439 1436
1444 1445 1446 1446 1447 1448 1448 1448 1449 1449 1449 1449 1450 1450 1450 1450 1450 1450 1450 1450 1449 1449 1448 1448 1447 1447 1446 1446 1445 1444 1443 1442 1441 1440 1439 1438 1437 1437 1436 1435 1435 1434 1432
1440 1441 1442 1443 1443 1444 1444 1444 1445 1445 1445 1445 1445 1445 1446 1446 1446 1446 1446 1446 1445 1445 1444 1443 1442 1442 1441 1441 1440 1440 1439 1438 1436 1435 1434 1432 1431 1431 1430 1429 1429 1428 1427
1436 1437 1438 1439 1439 1440 1440 1440 1441 1441 1441 1441 1441 1441 1441 1441 1441 1442 1442 1441 1441 1440 1439 1439 1438 1437 1436 1436 1436 1435 1434 1433 1432 1430 1429 1428 1427 1426 1425 1424 1423 1422 1421
1432 1433 1434 1435 1435 1436 1436 1437 1437 1437 1437 1437 1437 1437 1437 1437 1437 1437 1437 1437 1436 1435 1434 1434 1433 1433 1432 1432 1431 1430 1429 1428 1427 1426 1425 1423 1422 1421 1420 1419 1418 1417 1415
1428 1429 1430 1431 1431 1432 1432 1433 1433 1433 1434 1434 1433 1433 1433 1432 1432 1432 1432 1432 1431 1431 1430 1429 1428 1428 1427 1427 1426 1425 1425 1424 1423 1422 1421 1419 1418 1416 1415 1414 1413 1412 1411
1423 1424 1425 1426 1427 1428 1428 1429 1429 1430 1430 1430 1429 1429 1429 1429 1428 1428 1428 1428 1427 1426 1426 1424 1423 1423 1422 1422 1421 1421 1420 1419 1418 1417 1416 1415 1413 1412 1411 1410 1409 1407 1406
1419 1420 1421 1422 1423 1423 1424 1424 1424 1425 1425 1425 1425 1425 1425 1424 1424 1423 1423 1423 1422 1422 1421 1420 1419 1418 1418 1417 1417 1416 1415 1415 1414 1413 1412 1410 1409 1408 1407 1406 1404 1403 1401
1416 1417 1417 1418 1419 1419 1420 1420 1420 1420 1420 1420 1421 1421 1420 1420 1419 1419 1419 1419 1418 1417 1416 1416 1415 1414 1414 1413 1412 1412 1411 1410 1409 1408 1407 1406 1405 1404 1402 1401 1400 1399 1397
1412 1413 1414 1414 1415 1415 1416 1416 1416 1417 1416 1416 1416 1416 1416 1416 1415 1415 1415 1414 1413 1413 1412 1411 1411 1410 1410 1409 1408 1407 1406 1405 1404 1403 1402 1401 1400 1399 1398 1397 1396 1394 1394
1408 1409 1410 1410 1411 1411 1412 1412 1412 1412 1412 1412 1412 1412 1412 1412 1411 1411 1410 1409 1409 1408 1408 1407 1406 1406 1405 1405 1404 1403 1402 1401 1400 1399 1398 1397 1396 1395 1394 1393 1392 1391 1390
1405 1405 1406 1407 1407 1408 1408 1408 1409 1409 1409 1409 1409 1408 1408 1407 1407 1406 1406 1405 1404 1404 1403 1403 1402 1402 1401 1400 1399 1399 1398 1397 1396 1395 1394 1393 1392 1391 1390 1389 1388 1387 1386
1401 1402 1402 1403 1403 1404 1404 1405 1405 1405 1405 1405 1405 1405 1404 1403 1403 1402 1402 1401 1400 1400 1399 1398 1397 1397 1396 1395 1394 1394 1393 1391 1391 1390 1389 1388 1388 1387 1386 1385 1384 1383 1382
1398 1399 1399 1400 1400 1400 1401 1401 1401 1401 1401 1401 1401 1401 1400 1399 1398 1398 1397 1396 1396 1395 1394 1393 1392 1392 1391 1391 1390 1389 1388 1387 1386 1386 1385 1384 1383 1382 1382 1381 1380 1379 1379
1395 1396 1396 1396 1397 1397 1397 1397 1398 1398 1398 1397 1397 1396 1396 1395 1394 1393 1393 1392 1391 1390 1389 1389 1388 1387 1386 1386 1385 1384 1383 1382 1382 1381 1381 1380 1379 1378 1378 1377 1376 1375 1375
1392 1393 1393 1393 1394 1394 1394 1394 1394 1394 1394 1393 1393 1392 1392 1391 1390 1389 1388 1388 1387 1386 1385 1384 1383 1382 1382 1381 1380 1379 1378 1377 1377 1377 1376 1375 1375 1374 1373 1373 1372 1371 1371
1390 1390 1390 1390 1391 1391 1390 1390 1390 1390 1390 1389 1389 1388 1387 1387 1386 1385 1384 1383 1382 1381 1380 1380 1379 1378 1377 1376 1375 1374 1374 1373 1372 1372 1372 1371 1370 1369 1369 1368 1368 1367 1367